[[{"header":{"parameterUnit":"m.s-1","parameterCategory":1,"la1":30.2991,"la2":30.254,"lo1":-89.0895,"lo2":-89.0444,"dy":0.0017,"dx":0.0017,"nx":28,"ny":28,"refTime":"2023-10-24T03:00:00:Z","depth":0,"parameterNumber":2,"parameterNumberName":"U-component_of_WINDS"},"data":[0,0,0,0,0,0,0,0,0,0,0,0,0,0,0,0,0,0,0,0,0,0,0,0,0,0,0,0,0,0,0,0,0,0,0,0,0,0,0,0,0,0,0,0,0,0,0,0,0,0,0,0,0,0,0,0,0,0,-3.5745,-3.5746,0,-3.5811,-3.5811,-3.5812,-3.5726,-3.5723,-3.572,-3.5717,-3.5786,-3.579,-3.5795,0,0,0,0,0,0,0,0,0,0,0,0,0,-3.5549,-3.5553,-3.5745,-3.5746,-3.5747,-3.5811,-3.5811,-3.5812,-3.5727,-3.5723,-3.5719,-3.5716,-3.5784,-3.579,-3.5795,0,0,0,0,0,0,0,0,0,0,0,0,0,-3.5627,-3.5555,-3.5745,-3.5712,-3.5709,-3.581,-3.5811,-3.5813,-3.5727,-3.5723,-3.5718,-3.5714,-3.5782,-3.5789,-3.5796,-3.5933,0,0,-3.5818,-3.5821,0,0,0,0,0,0,0,0,-3.5622,-3.5634,-3.5716,-3.5714,-3.5712,-3.5755,-3.5767,-3.5853,-3.5729,-3.5721,-3.5717,-3.5711,-3.5779,-3.5786,-3.5809,-3.5936,-3.5939,-3.5818,-3.5823,-3.5826,-3.5828,0,0,0,0,0,0,0,-3.5617,-3.5631,-3.5771,-3.5717,-3.5715,-3.5695,-3.57,-3.5783,-3.5776,-3.5721,-3.5715,-3.5724,-3.5777,-3.5802,-3.581,-3.594,-3.5818,-3.5824,-3.5829,-3.5832,-3.6186,-3.6191,0,0,0,0,0,0,-3.5615,-3.5627,-3.5769,-3.5773,-3.5655,-3.5702,-3.5708,-3.5746,-3.5774,-3.5774,-3.5728,-3.5719,-3.5793,-3.5802,-3.5812,-3.5976,-3.5826,-3.5832,-3.5836,-3.6181,-3.6187,-3.6193,0,0,0,0,0,0,-3.5612,-3.5629,-3.5766,-3.5698,-3.5714,-3.571,-3.5753,-3.575,-3.5775,-3.5779,-3.5778,-3.5754,-3.5789,-3.5802,-3.5904,-3.5977,-3.5835,-3.5842,-3.6175,-3.6183,-3.619,-3.6303,0,0,0,0,0,0,-3.5606,-3.5628,-3.5679,-3.57,-3.5718,-3.5857,-3.5758,-3.5755,-3.5787,-3.5777,-3.5804,-3.5804,-3.5787,-3.5894,-3.5911,-3.5984,-3.5847,-3.6168,-3.6179,-3.6188,-3.6293,-3.6314,-3.6332,0,0,0,0,0,-3.56,-3.5708,-3.5682,-3.57,-3.5782,-3.5861,-3.5871,-3.5849,-3.5793,-3.5845,-3.5849,-3.5803,-3.5966,-3.5905,-3.5924,-3.6,-3.6164,-3.6176,-3.6187,-3.6284,-3.631,-3.6331,0,0,0,0,0,0,-3.5696,-3.571,-3.5681,-3.58,-3.583,-3.5846,-3.5911,-3.5876,-3.5923,-3.5911,-3.5882,-3.5889,-3.5998,-3.6009,-3.5941,-3.6135,-3.6056,-3.6072,-3.6124,-3.6148,-3.6167,-3.6162,-3.5853,0,0,0,0,0,-3.5731,-3.5793,-3.5803,-3.5906,-3.5923,-3.5915,-3.5948,-3.5928,-3.5958,-3.5971,-3.5981,-3.6013,-3.6071,-3.611,-3.6164,-3.6295,-3.63,-3.6356,-3.6376,-3.6392,-3.6406,-3.6477,-3.6503,-3.6231,-3.6231,-3.6231,0,0,-3.5804,-3.5819,-3.586,-3.5926,-3.5947,-3.6013,-3.5926,-3.5999,-3.6048,-3.5982,-3.6079,-3.6088,-3.6122,-3.6239,-3.6291,-3.6252,-3.6482,-3.6407,-3.6419,-3.6424,-3.6492,-3.6518,-3.6541,-3.6239,-3.6238,-3.6236,0,0,-3.597,-3.5988,-3.6077,-3.61,-3.6133,-3.6127,-3.6149,-3.6171,-3.6175,-3.6272,-3.6224,-3.6283,-3.6384,-3.641,-3.6437,-3.6617,-3.6577,-3.6636,-3.6736,-3.6807,-3.6828,-3.6847,-3.6912,-3.6936,-3.665,-3.665,-3.665,0,-3.6056,-3.6153,-3.6127,-3.6204,-3.6235,-3.6179,-3.627,-3.6294,-3.6343,-3.6367,-3.6322,-3.6449,-3.6467,-3.6591,-3.6635,-3.6658,-3.6683,-3.6632,-3.6827,-3.6846,-3.6863,-3.6925,-3.6949,-3.6657,-3.6656,-3.6655,-3.6655,0,-3.6258,-3.6326,-3.6395,-3.6444,-3.6483,-3.6566,-3.6554,-3.6597,-3.6575,-3.6575,-3.6676,-3.6697,-3.6755,-3.6783,-3.6761,-3.6904,-3.6879,-3.6832,-3.6751,-3.6896,-3.6954,-3.6977,-3.6667,-3.6664,-3.6662,-3.666,0,0,-3.6484,-3.652,-3.6545,-3.6568,-3.6601,-3.6654,-3.6737,-3.6793,-3.6831,-3.6868,-3.6937,-3.7026,-3.6982,-3.7013,-3.6995,-3.7056,-3.7199,-3.7001,-3.7002,-3.7038,-3.736,-3.7395,-3.7423,-3.7174,-3.7178,-3.7182,-3.7357,0,-3.6651,-3.6792,-3.6773,-3.6909,-3.6973,-3.6922,-3.6994,-3.7023,-3.7026,-3.7082,-3.7085,-3.7148,-3.7086,-3.7104,-3.7163,-3.7169,-3.7264,-3.7157,-3.7239,-3.7242,-3.7231,-3.7453,-3.749,-3.7654,-3.7379,-3.7383,-3.7386,0,-3.6863,-3.6908,-3.7051,-3.7077,-3.7103,-3.7168,-3.7219,-3.7273,-3.7306,-3.7304,-3.734,-3.7311,-3.7396,-3.7315,-3.7432,-3.7359,-3.7392,-3.7401,-3.7407,-3.7413,-3.7322,-3.7465,-3.7706,-3.7731,-3.7421,-3.7418,-3.7416,0,-3.7014,-3.7111,-3.7209,-3.723,-3.7262,-3.731,-3.7326,-3.7354,-3.739,-3.7436,-3.746,-3.7515,-3.7546,-3.759,-3.7578,-3.752,-3.7698,-3.7616,-3.77,-3.77,-3.7738,-3.7736,-3.7988,-3.7761,-3.776,-3.776,-3.7759,0,-3.7202,-3.7291,-3.7278,-3.7338,-3.7438,-3.7416,-3.7516,-3.7525,-3.7552,-3.7615,-3.7575,-3.7635,-3.7615,-3.7675,-3.7667,-3.7765,-3.7779,-3.7781,-3.7778,-3.7784,-3.7784,-3.7805,-3.7793,-3.7766,-3.7765,-3.7764,-3.7763,0,-3.7386,-3.7381,-3.7485,-3.7508,-3.7516,-3.7589,-3.7609,-3.7667,-3.7667,-3.7748,-3.7765,-3.7767,-3.7835,-3.7828,-3.7905,-3.7899,-3.8022,-3.8005,-3.8011,-3.8007,-3.8091,-3.8083,-3.8364,-3.8401,-3.815,-3.8153,-3.8155,0,-3.7506,-3.7574,-3.7605,-3.7644,-3.7663,-3.7727,-3.7764,-3.7746,-3.7787,-3.7832,-3.7885,-3.7949,-3.8,-3.8112,-3.8121,-3.818,-3.8164,-3.8259,-3.8173,-3.8178,-3.8166,-3.8162,-3.817,-3.8276,-3.8278,-3.8281,-3.8283,0,-3.7719,-3.7714,-3.7768,-3.7823,-3.7869,-3.7911,-3.7949,-3.7984,-3.7971,-3.8019,-3.8088,-3.8128,-3.8207,-3.8272,-3.8329,-3.8347,-3.8314,-3.831,-3.8333,-3.834,-3.834,-3.8342,-3.8057,-3.8303,-3.8301,-3.83,-3.8298,-3.8298,-3.7875,-3.7933,-3.7965,-3.8028,-3.8055,-3.8093,-3.8149,-3.8158,-3.8215,-3.8278,-3.8264,-3.8343,-3.8378,-3.845,-3.8474,-3.8537,-3.8503,-3.8535,-3.8543,-3.8552,-3.8562,-3.8331,-3.8547,-3.8547,-3.8546,-3.8546,-3.8545,0,-3.8086,-3.8104,-3.8163,-3.8218,-3.8269,-3.8233,-3.8275,-3.8319,-3.8389,-3.8424,-3.8475,-3.8557,-3.8621,-3.8636,-3.8698,-3.8746,-3.8732,-3.8762,-3.8758,-3.8764,-3.8588,-3.8563,-3.8772,-3.8772,-3.8772,-3.8772,-3.8772,-3.8772,-3.8201,-3.8299,-3.8298,-3.841,-3.8428,-3.8505,-3.8532,-3.8567,-3.8595,-3.8688,-3.8741,-3.875,-3.8778,-3.8842,-3.8901,-3.8904,-3.8928,-3.8965,-3.8962,-3.8798,-3.8775,-3.8754,-3.8729,-3.8971,-3.8971,-3.9132,-3.9134,-3.9135]},{"header":{"parameterUnit":"m.s-1","parameterCategory":1,"la1":30.2991,"la2":30.254,"lo1":-89.0895,"lo2":-89.0444,"dy":0.0017,"dx":0.0017,"nx":28,"ny":28,"refTime":"2023-10-24T03:00:00:Z","depth":0,"parameterNumber":3,"parameterNumberName":"V-component_of_WINDS"},"data":[0,0,0,0,0,0,0,0,0,0,0,0,0,0,0,0,0,0,0,0,0,0,0,0,0,0,0,0,0,0,0,0,0,0,0,0,0,0,0,0,0,0,0,0,0,0,0,0,0,0,0,0,0,0,0,0,0,0,0.0783,0.0783,0,0.0787,0.0787,0.0787,0.0747,0.0746,0.0745,0.0744,0.0749,0.075,0.0751,0,0,0,0,0,0,0,0,0,0,0,0,0,0.0744,0.0745,0.0783,0.0783,0.0783,0.0787,0.0787,0.0787,0.0747,0.0746,0.0745,0.0743,0.0749,0.075,0.0751,0,0,0,0,0,0,0,0,0,0,0,0,0,0.0756,0.0746,0.0783,0.0764,0.0762,0.0787,0.0787,0.0787,0.0748,0.0746,0.0744,0.0743,0.0748,0.075,0.0751,0.0795,0,0,0.0757,0.0757,0,0,0,0,0,0,0,0,0.0755,0.0757,0.0767,0.0765,0.0763,0.0765,0.0775,0.079,0.0748,0.0753,0.0744,0.0742,0.0756,0.0757,0.0761,0.0795,0.0795,0.0757,0.0758,0.0759,0.0759,0,0,0,0,0,0,0,0.0755,0.0757,0.0784,0.0767,0.0765,0.0756,0.0756,0.0777,0.0764,0.0753,0.075,0.0751,0.0754,0.0759,0.0761,0.0795,0.0757,0.0758,0.0759,0.076,0.0868,0.087,0,0,0,0,0,0,0.0756,0.0757,0.0784,0.0784,0.0755,0.0758,0.0758,0.0766,0.0763,0.0761,0.0752,0.0749,0.0757,0.0759,0.0761,0.0813,0.0759,0.076,0.0761,0.0866,0.0869,0.0871,0,0,0,0,0,0,0.0756,0.0759,0.0784,0.077,0.0772,0.076,0.077,0.0767,0.0772,0.0763,0.076,0.0759,0.0756,0.0758,0.0787,0.0813,0.0761,0.0763,0.0864,0.0867,0.087,0.0918,0,0,0,0,0,0,0.0755,0.0759,0.0775,0.077,0.0773,0.081,0.0771,0.0768,0.0775,0.077,0.0769,0.0767,0.0755,0.0785,0.0789,0.0814,0.0764,0.0862,0.0866,0.0869,0.0914,0.0922,0.0928,0,0,0,0,0,0.0753,0.0788,0.0776,0.0779,0.0792,0.0811,0.0813,0.0798,0.0777,0.0793,0.0788,0.0767,0.0809,0.0788,0.0792,0.0819,0.086,0.0865,0.0869,0.091,0.092,0.0928,0,0,0,0,0,0,0.0795,0.0787,0.0773,0.0807,0.081,0.0805,0.0824,0.0808,0.0817,0.0813,0.0794,0.0794,0.0827,0.0825,0.0802,0.0862,0.0831,0.0836,0.0862,0.0871,0.0878,0.0878,0.0765,0,0,0,0,0,0.0808,0.0823,0.0816,0.0846,0.0849,0.0837,0.0844,0.0832,0.0835,0.0836,0.0833,0.0837,0.0851,0.086,0.0873,0.0913,0.0913,0.0933,0.0941,0.0947,0.0952,0.0976,0.0985,0.0884,0.0884,0.0884,0,0,0.0835,0.0833,0.0844,0.0855,0.0856,0.0873,0.0838,0.0857,0.0871,0.0839,0.0867,0.0864,0.0868,0.0903,0.0919,0.0903,0.098,0.0952,0.0957,0.0959,0.0981,0.099,0.0999,0.0887,0.0887,0.0886,0,0,0.0894,0.0893,0.092,0.0922,0.0924,0.0916,0.0923,0.092,0.0917,0.0945,0.0922,0.0938,0.0962,0.0966,0.0971,0.1034,0.1017,0.1039,0.1078,0.1101,0.1109,0.1116,0.114,0.1149,0.1044,0.1044,0.1044,0,0.0928,0.0953,0.0935,0.0957,0.0964,0.0936,0.0964,0.0967,0.0973,0.0979,0.0961,0.0993,0.0993,0.103,0.1046,0.105,0.1058,0.1039,0.1109,0.1116,0.1122,0.1145,0.1154,0.1047,0.1046,0.1046,0.1046,0,0.0995,0.1013,0.1034,0.1042,0.105,0.1075,0.1062,0.1074,0.1061,0.1056,0.1085,0.1085,0.1098,0.1105,0.1093,0.1142,0.1132,0.1112,0.1081,0.1135,0.1156,0.1165,0.1051,0.105,0.1049,0.1048,0,0,0.1079,0.1078,0.1086,0.109,0.1092,0.1106,0.113,0.1143,0.1154,0.1159,0.118,0.1203,0.1185,0.1191,0.1179,0.1199,0.1252,0.1177,0.1177,0.1193,0.1308,0.1324,0.1334,0.124,0.1242,0.1243,0.1308,0,0.1138,0.1179,0.1165,0.1207,0.1224,0.12,0.1221,0.1225,0.1221,0.1236,0.1231,0.1248,0.1222,0.1226,0.1245,0.1242,0.1275,0.1236,0.1261,0.1262,0.1262,0.1345,0.1361,0.1422,0.1316,0.1317,0.1318,0,0.1212,0.1221,0.1265,0.1266,0.1273,0.1292,0.1304,0.1318,0.1323,0.1318,0.1326,0.1311,0.1336,0.1305,0.1341,0.1315,0.1324,0.1324,0.1326,0.1329,0.1294,0.1351,0.1441,0.1451,0.1331,0.133,0.1329,0,0.1271,0.1295,0.1325,0.1329,0.1329,0.1344,0.1345,0.1348,0.1358,0.1368,0.1374,0.1388,0.1395,0.1407,0.1396,0.1374,0.1435,0.1402,0.1433,0.1434,0.1447,0.1447,0.1542,0.1451,0.1451,0.1451,0.1451,0,0.1339,0.1367,0.1352,0.137,0.1402,0.1386,0.1418,0.1417,0.142,0.1439,0.1418,0.1437,0.1421,0.1439,0.143,0.1463,0.1466,0.1464,0.1462,0.1467,0.1467,0.1473,0.1469,0.1453,0.1453,0.1452,0.1452,0,0.1411,0.1401,0.1432,0.1431,0.1432,0.1455,0.1455,0.1473,0.1468,0.1492,0.1497,0.1489,0.1509,0.1499,0.152,0.1514,0.1556,0.1548,0.1555,0.1553,0.1586,0.1583,0.1689,0.1703,0.1602,0.1603,0.1604,0,0.1455,0.1476,0.1478,0.1489,0.1492,0.1509,0.1519,0.1505,0.1517,0.1525,0.1542,0.156,0.1574,0.1607,0.1604,0.162,0.1612,0.1648,0.1614,0.162,0.1615,0.1614,0.1617,0.1655,0.1657,0.1657,0.1658,0,0.1535,0.153,0.1544,0.1558,0.1571,0.1581,0.1589,0.1599,0.1586,0.16,0.162,0.1631,0.1652,0.1671,0.1686,0.1688,0.1672,0.1669,0.1677,0.1683,0.1687,0.1687,0.1575,0.1667,0.1666,0.1665,0.1665,0.1664,0.1595,0.1614,0.1619,0.1636,0.1642,0.165,0.1668,0.1665,0.1682,0.1698,0.1689,0.1713,0.172,0.1737,0.1742,0.1762,0.1748,0.1759,0.1763,0.1766,0.1771,0.1683,0.1764,0.1764,0.1764,0.1763,0.1763,0,0.1676,0.1678,0.1695,0.1708,0.1722,0.1705,0.1714,0.1728,0.1749,0.1756,0.1771,0.1795,0.1814,0.1813,0.183,0.1846,0.1839,0.1851,0.1851,0.1852,0.1782,0.1774,0.1857,0.1857,0.1857,0.1857,0.1857,0.1857,0.172,0.1751,0.1747,0.1782,0.1784,0.1807,0.1814,0.1823,0.1829,0.1857,0.1872,0.1872,0.1876,0.1894,0.1911,0.1911,0.1919,0.1934,0.1931,0.1866,0.1857,0.1848,0.184,0.1936,0.1936,0.2,0.2,0.2001]}]]